Weather History for Henderson, TX

Change the Weather History Date:

Monday, February 18, 2013

  Actual Average (KGGG) Record (KGGG)
Temperature  
Mean Temperature 61 °F 51 °F  
Max Temperature 71 °F 63 °F 83 °F (1911)
Min Temperature 51 °F 39 °F 9 °F (1910)
Degree Days  
Heating Degree Days 4 14  
Month to date heating degree days 292  
Since 1 July heating degree days 1775  
Cooling Degree Days 0 0  
Month to date cooling degree days 0  
Year to date cooling degree days 4  
Growing Degree Days 11 (Base 50)    
Moisture  
Dew Point 47 °F    
Average Humidity 63    
Maximum Humidity 88    
Minimum Humidity 39    
Precipitation  
Precipitation 0.12 in 0.16 in 2.13 in (2012)
Month to date precipitation 2.53  
Year to date precipitation 5.85  
Snow  
Snow 0.00 in - - ()
Month to date snowfall  
Since 1 July snowfall  
Snow Depth -    
Sea Level Pressure  
Sea Level Pressure 29.92 in    
Wind  
Wind Speed 11 mph (SSW)    
Max Wind Speed 18 mph    
Max Gust Speed 34 mph    
Visibility 10 miles    
Events Rain , Thunderstorm    
T = Trace of Precipitation, MM = Missing Value Source: NWS Daily Summary

Daily Weather History Graph

Daily Weather History Graph

Search for Another Location

Airport:

Trip Planner

Search our weather history database for the weather conditions in past years. The results will help you decide how hot, cold, wet, or windy it might be!

Date:

Astronomy

Feb. 18, 2013 Rise Set
Actual Time 6:58 AM CST 6:08 PM CST
Civil Twilight 6:33 AM CST 6:33 PM CST
Nautical Twilight 6:05 AM CST 7:02 PM CST
Astronomical Twilight 5:36 AM CST 7:30 PM CST
Moon 12:04 PM CST (2/18) 1:29 AM CST (2/18)
Length of Visible Light 11h 59m
Length of Day
11h 09m
First Quarter, 58% of the Moon is Illuminated
Feb 18
First Quarter
Feb 25
Full
Mar 4
Last Quarter
Mar 11
New
Mar 19
First Quarter

Hourly Weather History & Observations

Time (CST) Temp. Dew Point Humidity Pressure Visibility Wind Dir Wind Speed Gust Speed Precip Events Conditions
12:15 AM 53.6 °F 42.8 °F 67% 30.02 in 10.0 mi South 11.5 mph 16.1 mph N/A   Clear
12:35 AM 53.6 °F 42.8 °F 67% 30.02 in 10.0 mi South 9.2 mph - N/A   Clear
12:55 AM 53.6 °F 42.8 °F 67% 30.01 in 10.0 mi South 8.1 mph - N/A   Clear
1:15 AM 53.6 °F 42.8 °F 67% 30.00 in 10.0 mi South 8.1 mph - N/A   Clear
1:35 AM 53.6 °F 42.8 °F 67% 30.00 in 10.0 mi South 10.4 mph - N/A   Clear
1:55 AM 53.6 °F 42.8 °F 67% 29.99 in 10.0 mi South 10.4 mph 16.1 mph N/A   Mostly Cloudy
2:15 AM 53.6 °F 44.6 °F 72% 29.99 in 10.0 mi South 10.4 mph 17.3 mph N/A   Overcast
2:35 AM 53.6 °F 44.6 °F 72% 29.98 in 10.0 mi South 12.7 mph - N/A   Overcast
2:55 AM 53.6 °F 44.6 °F 72% 29.98 in 10.0 mi South 10.4 mph 19.6 mph N/A   Overcast
3:15 AM 53.6 °F 44.6 °F 72% 29.96 in 10.0 mi South 11.5 mph 17.3 mph N/A   Overcast
3:35 AM 53.6 °F 44.6 °F 72% 29.96 in 10.0 mi South 10.4 mph 18.4 mph N/A   Mostly Cloudy
3:55 AM 53.6 °F 44.6 °F 72% 29.95 in 10.0 mi South 10.4 mph 17.3 mph N/A   Mostly Cloudy
4:15 AM 53.6 °F 46.4 °F 77% 29.95 in 10.0 mi South 9.2 mph 16.1 mph N/A   Mostly Cloudy
4:35 AM 53.6 °F 46.4 °F 77% 29.95 in 10.0 mi SSE 12.7 mph 18.4 mph N/A   Overcast
4:55 AM 53.6 °F 46.4 °F 77% 29.94 in 10.0 mi South 11.5 mph 19.6 mph N/A   Mostly Cloudy
5:15 AM 55.4 °F 46.4 °F 72% 29.94 in 10.0 mi South 10.4 mph 21.9 mph N/A   Mostly Cloudy
5:35 AM 55.4 °F 46.4 °F 72% 29.93 in 10.0 mi South 12.7 mph 18.4 mph N/A   Mostly Cloudy
6:15 AM 55.4 °F 46.4 °F 72% 29.93 in 10.0 mi South 12.7 mph 23.0 mph N/A   Overcast
6:35 AM 55.4 °F 48.2 °F 77% 29.93 in 10.0 mi South 11.5 mph 19.6 mph N/A   Overcast
6:55 AM 55.4 °F 48.2 °F 77% 29.93 in 10.0 mi South 12.7 mph 19.6 mph N/A   Overcast
7:15 AM 55.4 °F 48.2 °F 77% 29.93 in 10.0 mi South 11.5 mph 19.6 mph N/A   Overcast
7:35 AM 57.2 °F 48.2 °F 72% 29.93 in 10.0 mi South 13.8 mph 19.6 mph N/A   Overcast
8:35 AM 59.0 °F 50.0 °F 72% 29.93 in 10.0 mi South 12.7 mph 21.9 mph N/A   Overcast
8:55 AM 60.8 °F 50.0 °F 68% 29.93 in 10.0 mi South 17.3 mph 24.2 mph N/A   Mostly Cloudy
9:15 AM 60.8 °F 51.8 °F 72% 29.92 in 10.0 mi South 12.7 mph 24.2 mph N/A   Overcast
9:35 AM 62.6 °F 51.8 °F 68% 29.92 in 10.0 mi South 13.8 mph 24.2 mph N/A   Overcast
9:55 AM 62.6 °F 51.8 °F 68% 29.92 in 10.0 mi SSW 13.8 mph 34.5 mph N/A   Overcast
10:15 AM 62.6 °F 51.8 °F 68% 29.93 in 10.0 mi SSW 12.7 mph 23.0 mph N/A   Overcast
10:35 AM 62.6 °F 51.8 °F 68% 29.92 in 10.0 mi SSW 18.4 mph 27.6 mph N/A   Overcast
10:55 AM 64.4 °F 53.6 °F 68% 29.91 in 10.0 mi South 18.4 mph 27.6 mph N/A   Overcast
11:15 AM 64.4 °F 53.6 °F 68% 29.90 in 10.0 mi South 17.3 mph 29.9 mph N/A   Overcast
11:35 AM 66.2 °F 53.6 °F 64% 29.88 in 10.0 mi South 13.8 mph 21.9 mph N/A   Overcast
11:55 AM 66.2 °F 53.6 °F 64% 29.87 in 10.0 mi South 13.8 mph 21.9 mph N/A   Overcast
12:15 PM 68.0 °F 53.6 °F 60% 29.86 in 10.0 mi South 15.0 mph 27.6 mph N/A   Overcast
12:35 PM 69.8 °F 53.6 °F 56% 29.85 in 10.0 mi South 18.4 mph 26.5 mph N/A   Overcast
12:55 PM 69.8 °F 53.6 °F 56% 29.83 in 10.0 mi SSW 17.3 mph 29.9 mph N/A   Mostly Cloudy
1:15 PM 69.8 °F 53.6 °F 56% 29.82 in 10.0 mi SSW 15.0 mph 31.1 mph N/A   Mostly Cloudy
1:35 PM 69.8 °F 53.6 °F 56% 29.83 in 10.0 mi SW 15.0 mph 26.5 mph N/A   Overcast
1:55 PM 68.0 °F 53.6 °F 60% 29.83 in 10.0 mi SSW 9.2 mph 26.5 mph N/A   Overcast
2:15 PM 68.0 °F 55.4 °F 64% 29.83 in 10.0 mi SW 5.8 mph 20.7 mph N/A   Overcast
2:35 PM 69.8 °F 55.4 °F 60% 29.82 in 10.0 mi SSW 10.4 mph 21.9 mph N/A   Mostly Cloudy
2:55 PM 68.0 °F 55.4 °F 64% 29.82 in 10.0 mi SSW 10.4 mph 20.7 mph N/A   Overcast
3:15 PM 68.0 °F 55.4 °F 64% 29.82 in 10.0 mi SSW 9.2 mph 18.4 mph N/A   Overcast
3:35 PM 71.6 °F 57.2 °F 60% 29.81 in 10.0 mi SSW 15.0 mph 21.9 mph N/A   Mostly Cloudy
3:55 PM 69.8 °F 55.4 °F 60% 29.80 in 10.0 mi SSW 12.7 mph 20.7 mph N/A   Scattered Clouds
4:15 PM 69.8 °F 55.4 °F 60% 29.80 in 10.0 mi SSW 15.0 mph 20.7 mph N/A   Mostly Cloudy
4:35 PM 71.6 °F 55.4 °F 57% 29.79 in 10.0 mi SSW 9.2 mph 16.1 mph N/A   Scattered Clouds
4:55 PM 69.8 °F 55.4 °F 60% 29.78 in 10.0 mi SSW 10.4 mph - N/A   Clear
5:15 PM 68.0 °F 57.2 °F 68% 29.79 in 10.0 mi SW 6.9 mph - N/A Rain Light Rain
5:35 PM 64.4 °F 59.0 °F 83% 29.81 in 7.0 mi SW 6.9 mph 19.6 mph 0.11 in Rain Rain
5:55 PM 62.6 °F 57.2 °F 82% 29.81 in 10.0 mi Calm Calm - 0.11 in   Mostly Cloudy
6:15 PM 62.6 °F 59.0 °F 88% 29.81 in 10.0 mi Calm Calm - N/A   Mostly Cloudy
6:35 PM 62.6 °F 53.6 °F 72% 29.87 in 10.0 mi WNW 6.9 mph 16.1 mph N/A Thunderstorm Overcast
6:55 PM 62.6 °F 42.8 °F 48% 29.88 in 10.0 mi NNW 8.1 mph 16.1 mph N/A Thunderstorm Scattered Clouds
7:15 PM 60.8 °F 37.4 °F 42% 29.91 in 10.0 mi NNW 6.9 mph - N/A   Clear
7:55 PM 59.0 °F 35.6 °F 42% 29.93 in 10.0 mi NW 5.8 mph - N/A   Clear
8:15 PM 59.0 °F 35.6 °F 42% 29.95 in 10.0 mi NNW 4.6 mph - N/A   Clear
8:35 PM 59.0 °F 33.8 °F 39% 29.96 in 10.0 mi NNW 8.1 mph - N/A   Clear
8:55 PM 57.2 °F 33.8 °F 41% 29.97 in 10.0 mi NNW 9.2 mph 19.6 mph 0.01 in   Clear
9:15 PM 57.2 °F 33.8 °F 41% 29.99 in 10.0 mi NNW 6.9 mph 16.1 mph N/A   Clear
9:35 PM 55.4 °F 33.8 °F 44% 30.00 in 10.0 mi NNW 6.9 mph - N/A   Clear
9:55 PM 55.4 °F 33.8 °F 44% 30.02 in 10.0 mi NNW 8.1 mph - N/A   Clear
10:15 PM 55.4 °F 33.8 °F 44% 30.03 in 10.0 mi NNW 6.9 mph 16.1 mph N/A   Clear
10:35 PM 53.6 °F 33.8 °F 47% 30.05 in 10.0 mi NNW 5.8 mph - N/A   Clear
10:55 PM 53.6 °F 32.0 °F 44% 30.07 in 10.0 mi NNW 4.6 mph - N/A   Clear
11:15 PM 53.6 °F 32.0 °F 44% 30.07 in 10.0 mi North 4.6 mph - N/A   Clear
11:35 PM 51.8 °F 33.8 °F 50% 30.08 in 10.0 mi Calm Calm - N/A   Clear
11:55 PM 51.8 °F 32.0 °F 47% 30.09 in 10.0 mi Calm Calm - N/A   Clear